"2009-12-08 00:00:00",1483486,5.115,34.75,3.511,0.478,-9.19,93.7524,-16.59,-15.16,84.7,0,108.5,14.04,-15.89,356.8
"2009-12-08 00:00:30",1483487,5.173,33.04,4.367,0.525,-9.17,93.7524,-16.59,-15.14,84.7,0,108.6,14.04,-15.89,355.0
"2009-12-08 00:01:00",1483488,5.175,29.94,4.134,0.522,-9.19,93.75267,-16.59,-15.16,84.7,0,108.5,14.04,-15.89,351.9
"2009-12-08 00:01:30",1483489,4.95,28.84,3.904,0.563,-9.32,93.75293,-16.59,-15.17,84.7,0,108.5,14.04,-15.89,350.8
"2009-12-08 00:02:00",1483490,4.853,28.56,3.873,0.497,-9.28,93.75346,-16.59,-15.15,84.8,0,108.5,14.04,-15.89,350.6
"2009-12-08 00:02:30",1483491,4.289,23.71,4.784,0.557,-9.47,93.7532,-16.59,-15.17,84.8,0,108.6,14.04,-15.89,345.7
"2009-12-08 00:03:00",1483492,4.313,21.88,4.676,0.619,-9.59,93.75426,-16.58,-15.16,84.8,0,108.6,14.04,-15.89,343.9
"2009-12-08 00:03:30",1483493,4.637,25.07,3.408,0.683,-9.88,93.75426,-16.58,-15.16,84.8,0,108.5,14.04,-15.89,347.1
"2009-12-08 00:04:00",1483494,4.915,24.54,4.318,0.447,-9.77,93.75694,-16.58,-15.18,84.8,0,108.5,14.04,-15.88,346.5
"2009-12-08 00:04:30",1483495,4.825,21.6,4.277,0.568,-9.9,93.7572,-16.58,-15.17,84.8,0,108.6,14.04,-15.88,343.6
"2009-12-08 00:05:00",1483496,4.768,24.62,4.112,0.611,-10.03,93.7572,-16.58,-15.17,84.8,0,108.5,14.04,-15.88,346.6
"2009-12-08 00:05:30",1483497,4.957,23.4,4.454,0.569,-9.79,93.75773,-16.57,-15.17,84.8,0,108.5,14.04,-15.88,345.4
"2009-12-08 00:06:00",1483498,4.971,26.2,3.341,0.621,-9.83,93.75932,-16.57,-15.17,84.8,0,108.5,14.04,-15.88,348.2
"2009-12-08 00:06:30",1483499,4.914,27.43,4.36,0.639,-9.71,93.75581,-16.58,-15.16,84.8,0,108.5,14.03,-15.89,349.4
"2009-12-08 00:07:00",1483500,4.999,28.1,3.723,0.571,-9.73,93.75035,-16.59,-15.18,84.8,0,108.5,14.03,-15.90,350.1
"2009-12-08 00:07:30",1483501,4.736,26.49,3.941,0.704,-9.68,93.74463,-16.61,-15.18,84.7,0,108.5,14.03,-15.91,348.5
"2009-12-08 00:08:00",1483502,4.498,25.12,3.087,0.518,-9.59,93.74259,-16.61,-15.19,84.7,0,108.5,14.03,-15.92,347.1
"2009-12-08 00:08:30",1483503,4.311,22.46,4.599,0.565,-9.71,93.73851,-16.62,-15.19,84.7,0,108.5,14.03,-15.93,344.5
"2009-12-08 00:09:00",1483504,4.567,23.94,5.178,0.635,-9.85,93.73596,-16.63,-15.19,84.7,0,108.5,14.03,-15.94,345.9
"2009-12-08 00:09:30",1483505,5.38,29.21,3.642,0.567,-10,93.73002,-16.64,-15.2,84.7,0,108.5,14.04,-15.95,351.2
"2009-12-08 00:10:00",1483506,4.893,28.46,4.104,0.595,-9.72,93.73132,-16.64,-15.2,84.7,0,108.5,14.04,-15.95,350.5
"2009-12-08 00:10:30",1483507,4.817,28.01,3.382,0.603,-9.79,93.73266,-16.64,-15.2,84.7,0,108.5,14.04,-15.94,350.0
"2009-12-08 00:11:00",1483508,5.329,29.06,4.067,0.608,-9.95,93.73345,-16.64,-15.2,84.7,0,108.5,14.04,-15.94,351.1
"2009-12-08 00:11:30",1483509,5.516,29.69,3.171,0.602,-9.86,93.73399,-16.63,-15.22,84.6,0,108.5,14.04,-15.94,351.7
"2009-12-08 00:12:00",1483510,5.605,31.79,3.176,0.581,-9.5,93.73425,-16.63,-15.23,84.6,0,108.5,14.04,-15.94,353.8
"2009-12-08 00:12:30",1483511,5.256,33.33,3.302,0.639,-9.48,93.73425,-16.63,-15.21,84.6,0,108.5,14.04,-15.94,355.3
"2009-12-08 00:13:00",1483512,5.269,32,3.474,0.702,-9.3,93.73452,-16.63,-15.23,84.6,0,108.5,14.04,-15.94,354.0
"2009-12-08 00:13:30",1483513,5.258,29.98,3.112,0.667,-9.3,93.73368,-16.64,-15.23,84.6,0,108.5,14.04,-15.94,352.0
"2009-12-08 00:14:00",1483514,5.418,30.37,2.768,0.633,-9.18,93.73305,-16.64,-15.23,84.6,0,108.5,14.04,-15.94,352.4
"2009-12-08 00:14:30",1483515,5.406,30.57,3.541,0.663,-9.17,93.72696,-16.65,-15.22,84.6,0,108.5,14.05,-15.96,352.6
"2009-12-08 00:15:00",1483516,5.19,30.74,3.404,0.6,-9.03,93.72319,-16.66,-15.24,84.6,0,108.5,14.05,-15.97,352.7
"2009-12-08 00:15:30",1483517,5.089,30.69,2.6,0.742,-9.24,93.72195,-16.67,-15.25,84.6,0,108.5,14.04,-15.97,352.7
"2009-12-08 00:16:00",1483518,5.183,31.23,2.937,0.416,-8.91,93.71878,-16.67,-15.25,84.6,0,108.5,14.05,-15.98,353.2
"2009-12-08 00:16:30",1483519,5.108,30.2,3.556,0.575,-9,93.71565,-16.68,-15.25,84.6,0,108.5,14.05,-15.99,352.2
"2009-12-08 00:17:00",1483520,5.074,30.86,3.687,0.634,-9.05,93.71416,-16.68,-15.25,84.6,0,108.5,14.05,-15.99,352.9
"2009-12-08 00:17:30",1483521,5.064,30.06,3.212,0.676,-9.16,93.71163,-16.69,-15.27,84.6,0,108.5,14.05,-16.00,352.1
"2009-12-08 00:18:00",1483522,5.181,30.87,3.327,0.58,-9.13,93.7074,-16.7,-15.27,84.6,0,108.5,14.05,-16.01,352.9
"2009-12-08 00:18:30",1483523,4.921,34.65,3.209,0.666,-9.26,93.70815,-16.7,-15.28,84.7,0,108.5,14.05,-16.01,356.6
"2009-12-08 00:19:00",1483524,4.865,35.8,3.538,0.681,-9.32,93.70864,-16.7,-15.28,84.7,0,108.5,14.05,-16.01,357.8
"2009-12-08 00:19:30",1483525,4.876,36.07,3.307,0.655,-9.28,93.70811,-16.7,-15.28,84.7,0,108.5,14.05,-16.01,358.1
"2009-12-08 00:20:00",1483526,5.026,36.61,2.919,0.669,-9.29,93.70811,-16.7,-15.27,84.7,0,108.5,14.05,-16.01,358.6
"2009-12-08 00:20:30",1483527,5.061,36.33,3.059,0.658,-9.4,93.70731,-16.7,-15.29,84.7,0,108.5,14.05,-16.01,358.3
"2009-12-08 00:21:00",1483528,5.105,37.82,2.819,0.723,-9.37,93.70811,-16.7,-15.3,84.7,0,108.5,14.05,-16.01,359.8
"2009-12-08 00:21:30",1483529,5.028,38.09,3.194,0.784,-9.32,93.70944,-16.7,-15.31,84.7,0,108.5,14.05,-16.00,0.1
"2009-12-08 00:22:00",1483530,5.107,38.24,3.336,0.595,-9.02,93.70998,-16.7,-15.3,84.8,0,108.5,14.05,-16.00,0.2
"2009-12-08 00:22:30",1483531,4.88,38.22,2.716,0.753,-9.3,93.70944,-16.7,-15.32,84.8,0,108.5,14.05,-16.00,0.2
"2009-12-08 00:23:00",1483532,4.994,37.39,2.832,0.642,-9.41,93.71104,-16.69,-15.32,84.8,0,108.5,14.05,-16.00,359.4
"2009-12-08 00:23:30",1483533,4.953,36.55,3.486,0.669,-9.26,93.71078,-16.69,-15.31,84.8,0,108.5,14.04,-16.00,358.5
"2009-12-08 00:24:00",1483534,4.895,37.81,3.109,0.627,-9.07,93.71042,-16.69,-15.31,84.9,0,108.5,14.04,-16.00,359.8
"2009-12-08 00:24:30",1483535,4.828,37.7,2.684,0.723,-9.33,93.70592,-16.71,-15.32,84.9,0,108.5,14.04,-16.01,359.7
"2009-12-08 00:25:00",1483536,4.847,37.14,3.285,0.727,-9.37,93.7029,-16.71,-15.33,84.9,0,108.5,14.04,-16.02,359.1
"2009-12-08 00:25:30",1483537,4.897,36.81,3.546,0.744,-9.3,93.69667,-16.73,-15.33,85,0,108.5,14.04,-16.04,358.8
"2009-12-08 00:26:00",1483538,5.051,37.23,2.96,0.712,-9.22,93.69181,-16.74,-15.35,85,0,108.5,14.04,-16.05,359.2
"2009-12-08 00:26:30",1483539,5.057,36.2,2.99,0.791,-9.36,93.68958,-16.75,-15.35,85.1,0,108.5,14.04,-16.05,358.2
"2009-12-08 00:27:00",1483540,5.004,36.43,2.495,0.755,-9.29,93.68845,-16.75,-15.36,85.1,0,108.5,14.04,-16.06,358.4
"2009-12-08 00:27:30",1483541,5.129,35.91,3.296,0.766,-9.24,93.6895,-16.75,-15.36,85.1,0,108.5,14.04,-16.05,357.9
"2009-12-08 00:28:00",1483542,5.193,34.82,2.811,0.719,-9.17,93.68974,-16.75,-15.36,85.2,0,108.5,14.04,-16.05,356.8
"2009-12-08 00:28:30",1483543,5.129,33.13,3.312,0.748,-9.26,93.68838,-16.75,-15.36,85.2,0,108.5,14.05,-16.06,355.1
"2009-12-08 00:29:00",1483544,5.136,30.53,3.316,0.756,-9.27,93.6892,-16.75,-15.36,85.2,0,108.5,14.05,-16.06,352.5
"2009-12-08 00:29:30",1483545,5.301,30.54,3.555,0.762,-9.22,93.69022,-16.75,-15.36,85.3,0,108.5,14.06,-16.05,352.5
"2009-12-08 00:30:00",1483546,5.461,31.09,2.409,0.583,-9.12,93.69028,-16.75,-15.37,85.3,0,108.5,14.06,-16.05,353.1
"2009-12-08 00:30:30",1483547,5.291,30.32,2.542,0.711,-9.31,93.69024,-16.75,-15.38,85.3,0,108.5,14.06,-16.05,352.3
"2009-12-08 00:31:00",1483548,5.332,30.05,3.138,0.61,-9.22,93.68916,-16.75,-15.37,85.3,0,108.5,14.06,-16.06,352.0
"2009-12-08 00:31:30",1483549,5.498,30.84,3.74,0.607,-9.22,93.68998,-16.75,-15.37,85.3,0,108.5,14.06,-16.05,352.8
"2009-12-08 00:32:00",1483550,5.618,31.75,2.93,0.568,-9.13,93.69137,-16.74,-15.38,85.4,0,108.5,14.06,-16.05,353.8
"2009-12-08 00:32:30",1483551,5.563,32.51,3.488,0.599,-9.24,93.69024,-16.75,-15.38,85.4,0,108.5,14.06,-16.05,354.5
"2009-12-08 00:33:00",1483552,5.578,32.14,3.324,0.724,-9.16,93.69051,-16.74,-15.35,85.4,0,108.5,14.06,-16.05,354.1
"2009-12-08 00:33:30",1483553,5.67,30.91,3.828,0.569,-9.13,93.6908,-16.74,-15.36,85.4,0,108.5,14.06,-16.05,352.9
"2009-12-08 00:34:00",1483554,5.554,32.85,3.473,0.527,-9.05,93.69051,-16.74,-15.35,85.4,0,108.5,14.06,-16.05,354.9
"2009-12-08 00:34:30",1483555,5.658,32.09,3.505,0.586,-9.09,93.6908,-16.74,-15.37,85.4,0,108.5,14.06,-16.05,354.1
"2009-12-08 00:35:00",1483556,5.347,33.6,2.905,0.71,-9.07,93.6908,-16.74,-15.36,85.5,0,108.5,14.06,-16.05,355.6
"2009-12-08 00:35:30",1483557,5.274,36.83,3.52,0.634,-9.08,93.69051,-16.74,-15.36,85.5,0,108.5,14.06,-16.05,358.8
"2009-12-08 00:36:00",1483558,5.262,36.33,2.734,0.612,-9.05,93.69022,-16.75,-15.36,85.5,0,108.5,14.06,-16.05,358.3
"2009-12-08 00:36:30",1483559,5.239,36.52,2.644,0.713,-9.15,93.68994,-16.75,-15.36,85.5,0,108.5,14.06,-16.05,358.5
"2009-12-08 00:37:00",1483560,5.192,36.8,3.153,0.674,-9.1,93.69022,-16.75,-15.35,85.5,0,108.5,14.06,-16.05,358.8
"2009-12-08 00:37:30",1483561,5.145,38.98,3.838,0.511,-9.07,93.68937,-16.75,-15.38,85.5,0,108.5,14.06,-16.06,1.0
"2009-12-08 00:38:00",1483562,5.088,39.67,3.172,0.5,-8.98,93.68795,-16.75,-15.38,85.5,0,108.5,14.06,-16.06,1.7
"2009-12-08 00:38:30",1483563,5.278,41.38,3.2,0.65,-9.14,93.68539,-16.76,-15.36,85.5,0,108.5,14.06,-16.07,3.4
"2009-12-08 00:39:00",1483564,5.072,39.28,2.703,0.673,-9.25,93.68454,-16.76,-15.36,85.6,0,108.5,14.06,-16.07,1.3
"2009-12-08 00:39:30",1483565,5.142,38.13,3.074,0.609,-9.23,93.68311,-16.76,-15.37,85.6,0,108.5,14.06,-16.07,0.1
"2009-12-08 00:40:00",1483566,5.326,36.09,3.215,0.62,-9.15,93.68198,-16.77,-15.39,85.6,0,108.6,14.06,-16.07,358.1
"2009-12-08 00:40:30",1483567,5.467,34.16,3.315,0.629,-9.31,93.68169,-16.77,-15.39,85.7,0,108.6,14.06,-16.07,356.2
"2009-12-08 00:41:00",1483568,5.488,33.95,3.528,0.635,-9.21,93.68169,-16.77,-15.38,85.7,0,108.5,14.06,-16.07,356.0
"2009-12-08 00:41:30",1483569,5.488,33.77,3.348,0.614,-9.25,93.68198,-16.77,-15.39,85.7,0,108.5,14.06,-16.07,355.8
"2009-12-08 00:42:00",1483570,5.679,34.12,3.722,0.473,-9.06,93.68169,-16.77,-15.38,85.7,0,108.6,14.06,-16.07,356.1
"2009-12-08 00:42:30",1483571,5.535,36.16,3.621,0.64,-9.14,93.68169,-16.77,-15.39,85.7,0,108.6,14.06,-16.07,358.2
"2009-12-08 00:43:00",1483572,5.697,32.89,3.665,0.676,-9.3,93.68169,-16.77,-15.39,85.8,0,108.5,14.06,-16.07,354.9
"2009-12-08 00:43:30",1483573,5.694,32.72,3.755,0.627,-9.16,93.68169,-16.77,-15.38,85.8,0,108.6,14.06,-16.07,354.7
"2009-12-08 00:44:00",1483574,5.666,35.49,3.394,0.486,-8.98,93.68169,-16.77,-15.39,85.8,0,108.6,14.06,-16.07,357.5
"2009-12-08 00:44:30",1483575,5.688,34.94,3.93,0.62,-9.14,93.68169,-16.77,-15.4,85.8,0,108.6,14.06,-16.07,356.9
"2009-12-08 00:45:00",1483576,5.51,36.5,3.266,0.624,-9.09,93.68169,-16.77,-15.38,85.8,0,108.5,14.06,-16.07,358.5
"2009-12-08 00:45:30",1483577,5.61,37.64,3.277,0.564,-9.05,93.68169,-16.77,-15.41,85.8,0,108.5,14.06,-16.07,359.6
"2009-12-08 00:46:00",1483578,5.673,37.39,2.745,0.474,-8.93,93.68083,-16.77,-15.42,85.8,0,108.6,14.06,-16.08,359.4
"2009-12-08 00:46:30",1483579,5.482,37.73,3.636,0.584,-9.05,93.67912,-16.77,-15.41,85.8,0,108.6,14.06,-16.08,359.7
"2009-12-08 00:47:00",1483580,5.548,38.58,2.886,0.619,-9.04,93.67884,-16.77,-15.41,85.8,0,108.5,14.06,-16.08,0.6
"2009-12-08 00:47:30",1483581,5.523,37.65,3.035,0.599,-9.04,93.67941,-16.77,-15.43,85.8,0,108.5,14.06,-16.08,359.6
"2009-12-08 00:48:00",1483582,5.438,38.63,2.48,0.57,-8.88,93.67287,-16.79,-15.43,85.8,0,108.5,14.06,-16.10,0.6
"2009-12-08 00:48:30",1483583,5.349,38.57,3.734,0.497,-8.98,93.66661,-16.81,-15.43,85.8,0,108.5,14.06,-16.11,0.6
"2009-12-08 00:49:00",1483584,5.351,39.64,3.168,0.562,-9,93.66234,-16.82,-15.43,85.8,0,108.5,14.06,-16.12,1.6
"2009-12-08 00:49:30",1483585,5.379,39.84,2.998,0.599,-9.05,93.65665,-16.83,-15.44,85.9,0,108.5,14.06,-16.14,1.8
"2009-12-08 00:50:00",1483586,5.377,39.73,2.437,0.595,-9,93.65437,-16.84,-15.44,85.9,0,108.5,14.06,-16.14,1.7
"2009-12-08 00:50:30",1483587,5.552,38.66,3.667,0.608,-9.07,93.65323,-16.84,-15.44,85.9,0,108.6,14.07,-16.15,0.7
"2009-12-08 00:51:00",1483588,5.926,40.22,3.418,0.477,-9.12,93.65295,-16.84,-15.44,86,0,108.5,14.06,-16.15,2.2
"2009-12-08 00:51:30",1483589,5.815,40.5,3.744,0.495,-8.94,93.64867,-16.85,-15.45,86,0,108.5,14.07,-16.16,2.5
"2009-12-08 00:52:00",1483590,5.875,41.44,3.308,0.388,-8.77,93.64754,-16.85,-15.46,86,0,108.5,14.07,-16.16,3.4
"2009-12-08 00:52:30",1483591,5.861,41.39,3.427,0.582,-8.83,93.64754,-16.85,-15.46,86.1,0,108.5,14.07,-16.16,3.4
"2009-12-08 00:53:00",1483592,5.899,40.6,3.753,0.504,-8.9,93.64754,-16.85,-15.46,86.1,0,108.5,14.07,-16.16,2.6
"2009-12-08 00:53:30",1483593,6.097,41.95,3.582,0.623,-8.88,93.64754,-16.85,-15.47,86.2,0,108.5,14.07,-16.16,4.0
"2009-12-08 00:54:00",1483594,6.419,43.1,3.003,0.591,-8.77,93.64754,-16.85,-15.46,86.2,0,108.5,14.07,-16.16,5.1
"2009-12-08 00:54:30",1483595,6.465,42.4,3.94,0.373,-8.76,93.64754,-16.85,-15.48,86.3,0,108.6,14.07,-16.16,4.4
"2009-12-08 00:55:00",1483596,5.904,39.68,4.19,0.571,-8.57,93.64754,-16.85,-15.46,86.4,0,108.5,14.07,-16.16,1.7
"2009-12-08 00:55:30",1483597,5.864,39.64,4.432,0.374,-8.72,93.64754,-16.85,-15.48,86.4,0,108.5,14.07,-16.16,1.6
"2009-12-08 00:56:00",1483598,6.181,41.07,3.371,0.463,-8.72,93.64754,-16.85,-15.49,86.4,0,108.5,14.07,-16.16,3.1
"2009-12-08 00:56:30",1483599,6.653,42.17,4.792,0.561,-8.69,93.64754,-16.85,-15.49,86.5,0,108.6,14.07,-16.16,4.2
"2009-12-08 00:57:00",1483600,6.876,43.39,3.453,0.618,-8.62,93.64754,-16.85,-15.49,86.6,0,108.5,14.06,-16.16,5.4
"2009-12-08 00:57:30",1483601,6.823,43.37,3.641,0.703,-8.5,93.64754,-16.85,-15.5,86.6,0,108.5,14.06,-16.16,5.4
"2009-12-08 00:58:00",1483602,6.908,44.17,3.046,0.625,-8.32,93.64754,-16.85,-15.5,86.7,0,108.5,14.06,-16.16,6.2
"2009-12-08 00:58:30",1483603,7.145,44.34,3.682,0.598,-8.41,93.64754,-16.85,-15.49,86.7,0,108.5,14.06,-16.16,6.3
"2009-12-08 00:59:00",1483604,6.749,43.23,3.611,0.652,-8.42,93.64754,-16.85,-15.49,86.8,0,108.5,14.06,-16.16,5.2
"2009-12-08 00:59:30",1483605,6.501,41.84,3.868,0.5,-8.43,93.64754,-16.85,-15.51,86.9,0,108.5,14.06,-16.16,3.8
"2009-12-08 01:00:00",1483606,6.442,41.79,4.053,0.631,-8.31,93.64754,-16.85,-15.51,86.9,0,108.5,14.06,-16.16,3.8
"2009-12-08 01:00:30",1483607,6.126,40.41,4.286,0.567,-8.53,93.64754,-16.85,-15.49,87,0,108.5,14.06,-16.16,2.4
"2009-12-08 01:01:00",1483608,6.161,40.4,4.34,0.586,-8.63,93.64754,-16.85,-15.49,87.1,0,108.5,14.06,-16.16,2.4
"2009-12-08 01:01:30",1483609,6.365,41.17,3.688,0.615,-8.58,93.64754,-16.85,-15.5,87.1,0,108.5,14.06,-16.16,3.2
"2009-12-08 01:02:00",1483610,6.379,41.18,3.801,0.675,-8.48,93.64754,-16.85,-15.5,87.1,0,108.5,14.06,-16.16,3.2
"2009-12-08 01:02:30",1483611,7.124,43.56,3.715,0.849,-8.68,93.64754,-16.85,-15.51,87.2,0,108.5,14.06,-16.16,5.6
"2009-12-08 01:03:00",1483612,7.032,42.7,4.538,0.582,-8.64,93.64754,-16.85,-15.5,87.2,0,108.5,14.07,-16.16,4.7
"2009-12-08 01:03:30",1483613,7.15,44.15,3.27,0.95,-8.7,93.64697,-16.86,-15.52,87.2,0,108.5,14.07,-16.16,6.2
"2009-12-08 01:04:00",1483614,7.419,45.3,3.665,0.841,-8.54,93.64297,-16.87,-15.52,87.2,0,108.5,14.07,-16.17,7.3
"2009-12-08 01:04:30",1483615,8,46.51,3.008,0.576,-8.62,93.63644,-16.88,-15.52,87.2,0,108.6,14.07,-16.19,8.5
"2009-12-08 01:05:00",1483616,8,46.81,3.538,0.576,-8.37,93.63046,-16.9,-15.52,87.3,0,108.5,14.07,-16.21,8.8
"2009-12-08 01:05:30",1483617,7.997,47.51,3.497,0.627,-8.37,93.62534,-16.91,-15.54,87.3,0,108.5,14.07,-16.22,9.5
"2009-12-08 01:06:00",1483618,7.852,46.99,2.661,0.689,-8.27,93.6256,-16.91,-15.54,87.3,0,108.5,14.07,-16.22,9.0
"2009-12-08 01:06:30",1483619,7.582,44.6,3.571,0.637,-8.29,93.62419,-16.91,-15.55,87.3,0,108.6,14.07,-16.22,6.6
"2009-12-08 01:07:00",1483620,7.734,45.45,3.9,0.596,-8.25,93.62306,-16.92,-15.54,87.4,0,108.5,14.07,-16.22,7.5
"2009-12-08 01:07:30",1483621,7.729,48.3,3.219,0.676,-8.17,93.62363,-16.91,-15.56,87.4,0,108.5,14.07,-16.22,10.3
"2009-12-08 01:08:00",1483622,7.745,49.08,2.39,0.657,-8.07,93.62505,-16.91,-15.57,87.4,0,108.5,14.07,-16.22,11.1
"2009-12-08 01:08:30",1483623,7.873,46.89,3.647,0.554,-8.17,93.63302,-16.89,-15.56,87.5,0,108.5,14.07,-16.20,8.9
"2009-12-08 01:09:00",1483624,7.903,46.9,3.596,0.624,-8.2,93.63928,-16.87,-15.54,87.6,0,108.5,14.07,-16.18,8.9
"2009-12-08 01:09:30",1483625,7.763,47.03,3.626,0.688,-8.26,93.64383,-16.86,-15.56,87.6,0,108.5,14.07,-16.17,9.0
"2009-12-08 01:10:00",1483626,7.655,50.22,3.391,0.69,-8.05,93.64611,-16.86,-15.55,87.6,0,108.5,14.07,-16.17,12.2
"2009-12-08 01:10:30",1483627,7.812,49.5,3.896,0.611,-8.1,93.64668,-16.86,-15.55,87.7,0,108.6,14.07,-16.16,11.5
"2009-12-08 01:11:00",1483628,7.809,48.44,3.172,0.717,-8.34,93.64754,-16.85,-15.54,87.8,0,108.5,14.07,-16.16,10.4
"2009-12-08 01:11:30",1483629,7.872,47.04,3.368,0.746,-8.36,93.64754,-16.85,-15.54,87.8,0,108.5,14.07,-16.16,9.0
"2009-12-08 01:12:00",1483630,7.258,44.35,3.185,0.856,-8.27,93.64754,-16.85,-15.53,87.8,0,108.5,14.07,-16.16,6.3
"2009-12-08 01:12:30",1483631,7.621,45.56,4.338,0.585,-8.35,93.64754,-16.85,-15.54,87.8,0,108.6,14.07,-16.16,7.6
"2009-12-08 01:13:00",1483632,7.928,47.39,3.565,0.623,-8.3,93.64754,-16.85,-15.52,87.9,0,108.5,14.07,-16.16,9.4
"2009-12-08 01:13:30",1483633,7.962,47.52,2.51,0.691,-8.37,93.64754,-16.85,-15.54,87.9,0,108.5,14.07,-16.16,9.5
"2009-12-08 01:14:00",1483634,7.809,45.56,3.29,0.797,-8.24,93.64668,-16.86,-15.54,87.9,0,108.5,14.07,-16.16,7.6
"2009-12-08 01:14:30",1483635,6.878,43.12,3.333,0.755,-8.44,93.64383,-16.86,-15.55,87.9,0,108.6,14.07,-16.17,5.1
"2009-12-08 01:15:00",1483636,6.856,43.21,4.228,0.982,-8.53,93.63871,-16.88,-15.53,87.9,0,108.5,14.07,-16.18,5.2
"2009-12-08 01:15:30",1483637,6.981,44.69,3.626,0.883,-8.41,93.63387,-16.89,-15.53,87.9,0,108.5,14.07,-16.20,6.7
"2009-12-08 01:16:00",1483638,6.977,44.44,3.149,0.692,-8.45,93.62448,-16.91,-15.56,87.9,0,108.5,14.07,-16.22,6.4
"2009-12-08 01:16:30",1483639,7.256,44.18,3.839,0.634,-8.51,93.62107,-16.92,-15.55,87.8,0,108.6,14.07,-16.23,6.2
"2009-12-08 01:17:00",1483640,7.843,47.05,2.86,0.806,-8.56,93.61736,-16.93,-15.55,87.9,0,108.5,14.07,-16.24,9.0
"2009-12-08 01:17:30",1483641,6.546,40.63,4.556,0.804,-8.63,93.6168,-16.93,-15.56,87.8,0,108.5,14.07,-16.24,2.6
"2009-12-08 01:18:00",1483642,6.127,39.24,3.242,0.726,-8.59,93.61509,-16.94,-15.59,87.8,0,108.5,14.07,-16.24,1.2
"2009-12-08 01:18:30",1483643,6.09,40.76,3.009,0.684,-8.68,93.61367,-16.94,-15.57,87.8,0,108.5,14.07,-16.25,2.8
"2009-12-08 01:19:00",1483644,6.278,39.42,2.861,0.568,-8.77,93.61339,-16.94,-15.57,87.8,0,108.5,14.07,-16.25,1.4
"2009-12-08 01:19:30",1483645,6.299,36.06,3.811,0.775,-8.86,93.61339,-16.94,-15.58,87.8,0,108.5,14.07,-16.25,358.1
"2009-12-08 01:20:00",1483646,5.879,39.14,2.469,0.891,-8.8,93.61339,-16.94,-15.59,87.7,0,108.5,14.07,-16.25,1.1
"2009-12-08 01:20:30",1483647,6.026,37.23,3.804,0.69,-8.9,93.61339,-16.94,-15.61,87.7,0,108.6,14.07,-16.25,359.2
"2009-12-08 01:21:00",1483648,6.255,37.47,4.409,0.837,-8.82,93.60683,-16.96,-15.59,87.7,0,108.5,14.07,-16.27,359.5
"2009-12-08 01:21:30",1483649,5.794,39.23,2.853,0.7,-8.89,93.59859,-16.98,-15.59,87.7,0,108.5,14.07,-16.29,1.2
"2009-12-08 01:22:00",1483650,5.912,39.26,2.773,0.76,-8.73,93.59546,-16.99,-15.63,87.7,0,108.5,14.07,-16.29,1.3
"2009-12-08 01:22:30",1483651,6.312,37.7,2.789,0.667,-9.04,93.58777,-17.01,-15.62,87.6,0,108.6,14.07,-16.31,359.7
"2009-12-08 01:23:00",1483652,5.933,37.87,3.126,0.717,-9.1,93.58264,-17.02,-15.61,87.6,0,108.5,14.07,-16.33,359.9
"2009-12-08 01:23:30",1483653,5.973,39.66,2.382,0.782,-8.92,93.58008,-17.03,-15.64,87.6,0,108.5,14.07,-16.33,1.7
"2009-12-08 01:24:00",1483654,6.195,38.61,3.329,0.749,-8.8,93.57922,-17.03,-15.63,87.6,0,108.5,14.07,-16.34,0.6
"2009-12-08 01:24:30",1483655,6.31,37.12,3.684,0.708,-8.9,93.57922,-17.03,-15.64,87.6,0,108.6,14.08,-16.34,359.1
"2009-12-08 01:25:00",1483656,6.058,33,4.452,0.711,-9.01,93.57949,-17.03,-15.63,87.6,0,108.5,14.07,-16.33,355.0
"2009-12-08 01:25:30",1483657,6.163,37.4,4.373,0.754,-8.91,93.57949,-17.03,-15.65,87.6,0,108.5,14.08,-16.33,359.4
"2009-12-08 01:26:00",1483658,5.686,38.3,2.919,0.75,-8.71,93.57976,-17.03,-15.65,87.6,0,108.5,14.08,-16.33,0.3
"2009-12-08 01:26:30",1483659,5.654,37.24,2.792,0.644,-8.98,93.57949,-17.03,-15.64,87.6,0,108.4,14.08,-16.33,359.2
"2009-12-08 01:27:00",1483660,5.441,38.15,4.52,0.505,-8.85,93.57949,-17.03,-15.64,87.6,0,108.5,14.08,-16.33,0.2
"2009-12-08 01:27:30",1483661,5.768,40.56,3.633,0.626,-9.05,93.57922,-17.03,-15.64,87.6,0,108.5,14.08,-16.34,2.6
"2009-12-08 01:28:00",1483662,6.092,39.4,2.786,0.766,-9.05,93.58003,-17.03,-15.66,87.6,0,108.5,14.08,-16.33,1.4
"2009-12-08 01:28:30",1483663,6.244,36.64,2.909,0.582,-9.06,93.57922,-17.03,-15.66,87.6,0,108.5,14.08,-16.34,358.6
"2009-12-08 01:29:00",1483664,5.843,37.31,3.515,0.676,-9.01,93.57976,-17.03,-15.65,87.6,0,108.5,14.08,-16.33,359.3
"2009-12-08 01:29:30",1483665,6.109,38.31,2.973,0.754,-9.08,93.57922,-17.03,-15.65,87.6,0,108.5,14.08,-16.34,0.3
"2009-12-08 01:30:00",1483666,6.232,37,3.034,0.812,-8.86,93.58029,-17.02,-15.66,87.6,0,108.5,14.08,-16.33,359.0
"2009-12-08 01:30:30",1483667,6.363,38.48,3.372,0.741,-9.02,93.58029,-17.02,-15.65,87.6,0,108.6,14.08,-16.33,0.5
"2009-12-08 01:31:00",1483668,6.479,35.96,3.695,0.85,-9.05,93.58003,-17.03,-15.63,87.6,0,108.5,14.08,-16.33,358.0
"2009-12-08 01:31:30",1483669,6.5,35.56,3.269,0.591,-9.19,93.58056,-17.02,-15.66,87.6,0,108.5,14.08,-16.33,357.6
"2009-12-08 01:32:00",1483670,6.203,36.92,4.056,0.696,-8.88,93.57922,-17.03,-15.65,87.6,0,108.5,14.07,-16.34,358.9
"2009-12-08 01:32:30",1483671,6.48,35.76,3.615,0.596,-9.1,93.58029,-17.02,-15.67,87.6,0,108.6,14.07,-16.33,357.8
"2009-12-08 01:33:00",1483672,6.36,31.65,4.022,0.647,-9.08,93.58056,-17.02,-15.65,87.5,0,108.5,14.07,-16.33,353.6
"2009-12-08 01:33:30",1483673,6.47,34.29,3.727,0.789,-8.92,93.58135,-17.02,-15.65,87.5,0,108.5,14.07,-16.33,356.3
"2009-12-08 01:34:00",1483674,6.26,35.85,3.911,0.598,-8.74,93.58242,-17.02,-15.66,87.5,0,108.5,14.07,-16.33,357.9
"2009-12-08 01:34:30",1483675,6.249,36.33,2.5,0.643,-8.99,93.58269,-17.02,-15.68,87.5,0,108.4,14.07,-16.33,358.3
"2009-12-08 01:35:00",1483676,6.431,33.17,4.198,0.568,-9.08,93.58323,-17.02,-15.66,87.5,0,108.5,14.07,-16.33,355.2
"2009-12-08 01:35:30",1483677,6.442,31.02,3.249,0.557,-9.04,93.58349,-17.02,-15.66,87.5,0,108.5,14.07,-16.32,353.0
"2009-12-08 01:36:00",1483678,6.578,31.61,3.982,0.473,-8.97,93.58241,-17.02,-15.67,87.5,0,108.5,14.07,-16.33,353.6
"2009-12-08 01:36:30",1483679,6.554,32.42,2.43,0.674,-9.09,93.58536,-17.01,-15.68,87.5,0,108.5,14.07,-16.32,354.4
"2009-12-08 01:37:00",1483680,6.335,32.92,3.756,0.597,-8.95,93.58425,-17.01,-15.66,87.5,0,108.5,14.07,-16.32,354.9
"2009-12-08 01:37:30",1483681,6.764,33.15,3.552,0.738,-9.05,93.58245,-17.02,-15.65,87.4,0,108.5,14.08,-16.33,355.1
"2009-12-08 01:38:00",1483682,6.736,33.34,3.183,0.717,-8.86,93.57947,-17.03,-15.67,87.4,0,108.5,14.08,-16.33,355.3
"2009-12-08 01:38:30",1483683,6.742,32.97,3.327,0.605,-9.06,93.57701,-17.03,-15.66,87.4,0,108.5,14.08,-16.34,355.0
"2009-12-08 01:39:00",1483684,6.843,32.18,3.787,0.483,-9.02,93.57792,-17.03,-15.67,87.4,0,108.5,14.08,-16.34,354.2
"2009-12-08 01:39:30",1483685,6.211,36.32,2.806,0.791,-9.1,93.57877,-17.03,-15.68,87.4,0,108.5,14.08,-16.34,358.3
"2009-12-08 01:40:00",1483686,6.318,34.11,3.452,0.638,-8.94,93.575,-17.04,-15.68,87.4,0,108.5,14.08,-16.35,356.1
"2009-12-08 01:40:30",1483687,6.318,33.58,3.371,0.435,-9.06,93.56656,-17.06,-15.67,87.4,0,108.5,14.08,-16.37,355.6
"2009-12-08 01:41:00",1483688,6.205,33.59,3.453,0.535,-8.99,93.56719,-17.06,-15.68,87.4,0,108.5,14.08,-16.37,355.6
"2009-12-08 01:41:30",1483689,6.31,30.5,3.857,0.459,-9.01,93.56742,-17.06,-15.69,87.3,0,108.5,14.08,-16.37,352.5
"2009-12-08 01:42:00",1483690,6.222,30.66,4.59,0.675,-9.08,93.56556,-17.06,-15.68,87.3,0,108.5,14.08,-16.37,352.7
"2009-12-08 01:42:30",1483691,6.28,33.78,3.801,0.478,-8.89,93.5677,-17.06,-15.68,87.3,0,108.5,14.08,-16.36,355.8
"2009-12-08 01:43:00",1483692,6.132,30.95,3.354,0.752,-9.03,93.56693,-17.06,-15.68,87.3,0,108.5,14.08,-16.37,353.0
"2009-12-08 01:43:30",1483693,6.072,29.49,3.727,0.305,-9.04,93.56634,-17.06,-15.68,87.3,0,108.5,14.08,-16.37,351.5
"2009-12-08 01:44:00",1483694,5.91,29.54,3.11,0.737,-8.89,93.56712,-17.06,-15.68,87.3,0,108.5,14.08,-16.37,351.5
"2009-12-08 01:44:30",1483695,5.857,28.9,3.647,0.591,-9.1,93.56463,-17.06,-15.69,87.3,0,108.5,14.08,-16.37,350.9
"2009-12-08 01:45:00",1483696,5.644,25.44,4.147,0.582,-9.04,93.56348,-17.07,-15.68,87.3,0,108.5,14.08,-16.38,347.4